| time (UTC) | temp C | wind direction | speed KPH | gust KPH | rain 1hr cm | rain 24hr cm | rain mn cm | humidity % | barometer mb |
| 20260901024003 | 26 | 0 | 0.0 | 0.0 | 0.00 | 0.00 | 0.00 | 76 | 1018.0 |
| 20260901023503 | 26 | 0 | 0.0 | 0.0 | 0.00 | 0.00 | 0.00 | 76 | 1018.0 |
| 20260901023003 | 26 | 147 | 0.0 | 1.6 | 0.00 | 0.00 | 0.00 | 76 | 1018.1 |
| 20260901022503 | 26 | 146 | 0.0 | 1.6 | 0.00 | 0.00 | 0.00 | 74 | 1018.0 |
| 20260901022003 | 26 | 146 | 0.0 | 1.6 | 0.00 | 0.00 | 0.00 | 74 | 1018.0 |
| 20260901021503 | 26 | 0 | 0.0 | 0.0 | 0.00 | 0.00 | 0.00 | 75 | 1018.0 |
| 20260901021003 | 26 | 0 | 0.0 | 0.0 | 0.00 | 0.00 | 0.00 | 75 | 1017.9 |
| 20260901020503 | 26 | 0 | 0.0 | 0.0 | 0.00 | 0.00 | 0.00 | 77 | 1018.0 |
| 20260901020004 | 26 | 0 | 0.0 | 0.0 | 0.00 | 0.00 | 0.00 | 79 | 1018.0 |
| 20260901015503 | 26 | 0 | 0.0 | 0.0 | 0.00 | 0.00 | 0.00 | 79 | 1018.0 |
| 20260901015004 | 26 | 0 | 0.0 | 0.0 | 0.00 | 0.00 | 0.00 | 80 | 1017.9 |
| 20260901014503 | 26 | 0 | 0.0 | 0.0 | 0.00 | 0.00 | 0.00 | 80 | 1018.0 |
| 20260901014003 | 26 | 0 | 0.0 | 0.0 | 0.00 | 0.00 | 0.00 | 79 | 1017.9 |
| 20260901013503 | 25 | 0 | 0.0 | 0.0 | 0.00 | 0.00 | 0.00 | 80 | 1017.8 |
| 20260901013003 | 25 | 0 | 0.0 | 0.0 | 0.00 | 0.00 | 0.00 | 80 | 1017.7 |
| 20260901012503 | 25 | 0 | 0.0 | 0.0 | 0.00 | 0.00 | 0.00 | 79 | 1017.7 |
| 20260901012003 | 25 | 0 | 0.0 | 0.0 | 0.00 | 0.00 | 0.00 | 78 | 1017.6 |
| 20260901011503 | 25 | 0 | 0.0 | 0.0 | 0.00 | 0.00 | 0.00 | 77 | 1017.6 |
| 20260901011004 | 26 | 0 | 0.0 | 0.0 | 0.00 | 0.00 | 0.00 | 78 | 1017.4 |
| 20260901010503 | 26 | 0 | 0.0 | 0.0 | 0.00 | 0.00 | 0.00 | 77 | 1017.4 |
| 20260901010004 | 26 | 0 | 0.0 | 0.0 | 0.00 | 0.00 | 0.00 | 76 | 1017.4 |
| 20260901005503 | 26 | 0 | 0.0 | 0.0 | 0.00 | 0.00 | 0.00 | 76 | 1017.4 |
| 20260901005004 | 26 | 0 | 0.0 | 0.0 | 0.00 | 0.00 | 0.00 | 75 | 1017.3 |
| 20260901004503 | 26 | 0 | 0.0 | 0.0 | 0.00 | 0.00 | 0.00 | 74 | 1017.3 |
| 20260901004003 | 26 | 0 | 0.0 | 0.0 | 0.00 | 0.00 | 0.00 | 71 | 1017.2 |
| 20260901003503 | 26 | 0 | 0.0 | 0.0 | 0.00 | 0.00 | 0.00 | 70 | 1017.2 |
| 20260901003003 | 26 | 0 | 0.0 | 0.0 | 0.00 | 0.00 | 0.00 | 68 | 1017.2 |
| 20260901002503 | 26 | 0 | 0.0 | 0.0 | 0.00 | 0.00 | 0.00 | 68 | 1017.1 |
| 20260901002003 | 26 | 0 | 0.0 | 0.0 | 0.00 | 0.00 | 0.00 | 67 | 1017.1 |
| 20260901001503 | 27 | 0 | 0.0 | 0.0 | 0.00 | 0.00 | 0.00 | 66 | 1017.1 |
| 20260901001003 | 27 | 0 | 0.0 | 0.0 | 0.00 | 0.00 | 0.00 | 67 | 1017.1 |
| 20260901000503 | 27 | 0 | 0.0 | 0.0 | 0.00 | 0.00 | 0.00 | 67 | 1017.0 |
| 20260901000004 | 27 | 0 | 0.0 | 0.0 | 0.00 | 0.00 | 0.00 | 67 | 1017.0 |
| 20260831235503 | 27 | 0 | 0.0 | 0.0 | 0.00 | 0.00 | 0.00 | 66 | 1017.0 |
| 20260831235003 | 28 | 0 | 0.0 | 0.0 | 0.00 | 0.00 | 0.00 | 66 | 1017.0 |
| 20260831234503 | 28 | 0 | 0.0 | 0.0 | 0.00 | 0.00 | 0.00 | 64 | 1017.0 |
| 20260831234003 | 28 | 0 | 0.0 | 0.0 | 0.00 | 0.00 | 0.00 | 62 | 1017.0 |
| 20260831233503 | 28 | 0 | 0.0 | 0.0 | 0.00 | 0.00 | 0.00 | 61 | 1017.0 |
| 20260831233004 | 28 | 0 | 0.0 | 0.0 | 0.00 | 0.00 | 0.00 | 61 | 1017.0 |
| 20260831232503 | 29 | 0 | 0.0 | 0.0 | 0.00 | 0.00 | 0.00 | 58 | 1016.9 |
| 20260831232003 | 30 | 0 | 0.0 | 0.0 | 0.00 | 0.00 | 0.00 | 57 | 1016.9 |
| 20260831231503 | 30 | 0 | 0.0 | 0.0 | 0.00 | 0.00 | 0.00 | 57 | 1016.9 |
| 20260831231003 | 30 | 0 | 0.0 | 0.0 | 0.00 | 0.00 | 0.00 | 56 | 1016.9 |
| 20260831230503 | 30 | 0 | 0.0 | 0.0 | 0.00 | 0.00 | 0.00 | 56 | 1016.8 |
| 20260831230003 | 31 | 0 | 0.0 | 0.0 | 0.00 | 0.00 | 0.00 | 55 | 1016.8 |
| 20260831225503 | 31 | 0 | 0.0 | 0.0 | 0.00 | 0.00 | 0.00 | 53 | 1016.9 |
| 20260831225003 | 31 | 0 | 0.0 | 0.0 | 0.00 | 0.00 | 0.00 | 53 | 1016.9 |
| 20260831224503 | 31 | 0 | 0.0 | 0.0 | 0.00 | 0.00 | 0.00 | 52 | 1016.9 |
| 20260831224003 | 31 | 0 | 0.0 | 0.0 | 0.00 | 0.00 | 0.00 | 53 | 1016.9 |
| 20260831223503 | 32 | 0 | 0.0 | 0.0 | 0.00 | 0.00 | 0.00 | 50 | 1016.9 |
| 20260831223003 | 32 | 248 | 0.0 | 1.6 | 0.00 | 0.00 | 0.00 | 51 | 1016.8 |
| 20260831222503 | 32 | 247 | 0.0 | 1.6 | 0.00 | 0.00 | 0.00 | 50 | 1016.9 |
| 20260831222003 | 32 | 249 | 0.0 | 1.6 | 0.00 | 0.00 | 0.00 | 49 | 1016.9 |
| 20260831221503 | 33 | 250 | 0.0 | 1.6 | 0.00 | 0.00 | 0.00 | 47 | 1016.8 |
| 20260831221003 | 33 | 0 | 0.0 | 0.0 | 0.00 | 0.00 | 0.00 | 46 | 1016.7 |
| 20260831220503 | 34 | 281 | 0.0 | 1.6 | 0.00 | 0.00 | 0.00 | 46 | 1016.8 |
| 20260831220003 | 34 | 199 | 0.0 | 1.6 | 0.00 | 0.00 | 0.00 | 45 | 1016.9 |
| 20260831215503 | 34 | 180 | 0.0 | 1.6 | 0.00 | 0.00 | 0.00 | 44 | 1017.0 |
| 20260831215003 | 34 | 252 | 0.0 | 1.6 | 0.00 | 0.00 | 0.00 | 46 | 1017.0 |
| 20260831214503 | 34 | 252 | 0.0 | 1.6 | 0.00 | 0.00 | 0.00 | 48 | 1017.0 |
| 20260831214003 | 34 | 294 | 0.0 | 3.2 | 0.00 | 0.00 | 0.00 | 48 | 1017.0 |
| 20260831213503 | 34 | 290 | 0.0 | 3.2 | 0.00 | 0.00 | 0.00 | 44 | 1017.1 |
| 20260831213003 | 34 | 225 | 0.0 | 3.2 | 0.00 | 0.00 | 0.00 | 45 | 1017.2 |
| 20260831212503 | 34 | 254 | 0.0 | 3.2 | 0.00 | 0.00 | 0.00 | 44 | 1017.2 |
| 20260831212003 | 34 | 277 | 0.0 | 3.2 | 0.00 | 0.00 | 0.00 | 48 | 1017.2 |
| 20260831211503 | 35 | 172 | 0.0 | 1.6 | 0.00 | 0.00 | 0.00 | 45 | 1017.1 |
| 20260831211003 | 35 | 286 | 0.0 | 1.6 | 0.00 | 0.00 | 0.00 | 47 | 1017.1 |
| 20260831210504 | 34 | 278 | 0.0 | 1.6 | 0.00 | 0.00 | 0.00 | 47 | 1017.1 |
| 20260831210004 | 34 | 276 | 0.0 | 1.6 | 0.00 | 0.00 | 0.00 | 47 | 1017.2 |
| 20260831205503 | 34 | 235 | 0.0 | 3.2 | 0.00 | 0.00 | 0.00 | 47 | 1017.3 |
| 20260831205003 | 33 | 253 | 0.0 | 8.0 | 0.00 | 0.00 | 0.00 | 46 | 1017.3 |
| 20260831204503 | 33 | 255 | 1.6 | 8.0 | 0.00 | 0.00 | 0.00 | 45 | 1017.3 |
| 20260831204003 | 34 | 255 | 0.0 | 4.8 | 0.00 | 0.00 | 0.00 | 48 | 1017.4 |
| 20260831203503 | 34 | 262 | 0.0 | 1.6 | 0.00 | 0.00 | 0.00 | 46 | 1017.3 |
| 20260831203003 | 34 | 271 | 0.0 | 3.2 | 0.00 | 0.00 | 0.00 | 44 | 1017.4 |
| 20260831202503 | 34 | 274 | 0.0 | 3.2 | 0.00 | 0.00 | 0.00 | 50 | 1017.4 |
| 20260831202003 | 34 | 260 | 0.0 | 3.2 | 0.00 | 0.00 | 0.00 | 50 | 1017.5 |
| 20260831201503 | 34 | 266 | 0.0 | 3.2 | 0.00 | 0.00 | 0.00 | 52 | 1017.5 |
| 20260831201003 | 34 | 309 | 0.0 | 3.2 | 0.00 | 0.00 | 0.00 | 48 | 1017.5 |
| 20260831200503 | 34 | 324 | 0.0 | 3.2 | 0.00 | 0.00 | 0.00 | 50 | 1017.5 |
| 20260831200003 | 34 | 297 | 0.0 | 3.2 | 0.00 | 0.00 | 0.00 | 48 | 1017.5 |
| 20260831195503 | 34 | 276 | 0.0 | 4.8 | 0.00 | 0.00 | 0.00 | 48 | 1017.6 |
| 20260831195003 | 34 | 262 | 0.0 | 4.8 | 0.00 | 0.00 | 0.00 | 50 | 1017.6 |
| 20260831194503 | 34 | 244 | 0.0 | 4.8 | 0.00 | 0.00 | 0.00 | 47 | 1017.7 |
| 20260831194003 | 34 | 281 | 0.0 | 4.8 | 0.00 | 0.00 | 0.00 | 53 | 1017.7 |
| 20260831193503 | 34 | 292 | 0.0 | 4.8 | 0.00 | 0.00 | 0.00 | 53 | 1017.8 |
| 20260831193003 | 34 | 192 | 0.0 | 1.6 | 0.00 | 0.00 | 0.00 | 51 | 1017.8 |
| 20260831192503 | 34 | 218 | 0.0 | 3.2 | 0.00 | 0.00 | 0.00 | 51 | 1017.9 |
| 20260831192003 | 34 | 209 | 0.0 | 3.2 | 0.00 | 0.00 | 0.00 | 50 | 1017.9 |
| 20260831191503 | 34 | 159 | 0.0 | 1.6 | 0.00 | 0.00 | 0.00 | 52 | 1017.9 |
| 20260831191003 | 34 | 175 | 0.0 | 3.2 | 0.00 | 0.00 | 0.00 | 51 | 1018.0 |
| 20260831190503 | 34 | 168 | 0.0 | 3.2 | 0.00 | 0.00 | 0.00 | 52 | 1018.2 |
| 20260831190003 | 33 | 177 | 0.0 | 3.2 | 0.00 | 0.00 | 0.00 | 51 | 1018.2 |
| 20260831185503 | 33 | 231 | 0.0 | 3.2 | 0.00 | 0.00 | 0.00 | 53 | 1018.3 |
| 20260831185003 | 33 | 291 | 0.0 | 1.6 | 0.00 | 0.00 | 0.00 | 53 | 1018.3 |
| 20260831184503 | 33 | 263 | 0.0 | 4.8 | 0.00 | 0.00 | 0.00 | 52 | 1018.4 |
| 20260831184003 | 33 | 246 | 1.6 | 4.8 | 0.00 | 0.00 | 0.00 | 54 | 1018.4 |
| 20260831183503 | 33 | 230 | 0.0 | 4.8 | 0.00 | 0.00 | 0.00 | 52 | 1018.5 |
| 20260831183003 | 33 | 272 | 0.0 | 4.8 | 0.00 | 0.00 | 0.00 | 54 | 1018.5 |
| 20260831182503 | 33 | 315 | 0.0 | 4.8 | 0.00 | 0.00 | 0.00 | 56 | 1018.5 |
| 20260831182003 | 33 | 94 | 0.0 | 1.6 | 0.00 | 0.00 | 0.00 | 55 | 1018.6 |
| 20260831181503 | 33 | 101 | 0.0 | 1.6 | 0.00 | 0.00 | 0.00 | 53 | 1018.7 |
| 20260831181003 | 33 | 182 | 0.0 | 1.6 | 0.00 | 0.00 | 0.00 | 57 | 1018.7 |
| 20260831180503 | 33 | 217 | 0.0 | 1.6 | 0.00 | 0.00 | 0.00 | 55 | 1018.7 |
| 20260831180004 | 32 | 148 | 0.0 | 3.2 | 0.00 | 0.00 | 0.00 | 56 | 1018.7 |
| 20260831175503 | 32 | 249 | 1.6 | 4.8 | 0.00 | 0.00 | 0.00 | 57 | 1018.7 |
| 20260831175003 | 32 | 259 | 1.6 | 4.8 | 0.00 | 0.00 | 0.00 | 54 | 1018.8 |
| 20260831174503 | 33 | 176 | 0.0 | 3.2 | 0.00 | 0.00 | 0.00 | 53 | 1018.8 |
| 20260831174003 | 33 | 160 | 0.0 | 3.2 | 0.00 | 0.00 | 0.00 | 57 | 1018.8 |
| 20260831173503 | 32 | 37 | 0.0 | 3.2 | 0.00 | 0.00 | 0.00 | 57 | 1018.8 |
| 20260831173003 | 32 | 65 | 0.0 | 4.8 | 0.00 | 0.00 | 0.00 | 57 | 1018.9 |
| 20260831172503 | 32 | 61 | 0.0 | 4.8 | 0.00 | 0.00 | 0.00 | 58 | 1019.0 |
| 20260831172003 | 32 | 64 | 0.0 | 8.0 | 0.00 | 0.00 | 0.00 | 58 | 1019.0 |
| 20260831171503 | 31 | 71 | 1.6 | 8.0 | 0.00 | 0.00 | 0.00 | 62 | 1018.9 |
| 20260831171003 | 31 | 70 | 0.0 | 4.8 | 0.00 | 0.00 | 0.00 | 59 | 1018.9 |
| 20260831170504 | 31 | 59 | 0.0 | 4.8 | 0.00 | 0.00 | 0.00 | 60 | 1019.0 |
| 20260831170003 | 31 | 70 | 1.6 | 4.8 | 0.00 | 0.00 | 0.00 | 59 | 1019.1 |
| 20260831165503 | 31 | 75 | 1.6 | 4.8 | 0.00 | 0.00 | 0.00 | 62 | 1019.1 |
| 20260831165003 | 31 | 63 | 0.0 | 4.8 | 0.00 | 0.00 | 0.00 | 60 | 1019.1 |
| 20260831164503 | 31 | 280 | 1.6 | 6.4 | 0.00 | 0.00 | 0.00 | 61 | 1019.1 |
| 20260831164003 | 31 | 240 | 1.6 | 6.4 | 0.00 | 0.00 | 0.00 | 59 | 1019.2 |
| 20260831163503 | 31 | 173 | 0.0 | 4.8 | 0.00 | 0.00 | 0.00 | 60 | 1019.2 |
| 20260831163003 | 31 | 38 | 0.0 | 1.6 | 0.00 | 0.00 | 0.00 | 63 | 1019.3 |
| 20260831162503 | 31 | 41 | 0.0 | 1.6 | 0.00 | 0.00 | 0.00 | 63 | 1019.4 |
| 20260831162003 | 31 | 82 | 0.0 | 4.8 | 0.00 | 0.00 | 0.00 | 64 | 1019.4 |
| 20260831161503 | 30 | 84 | 0.0 | 4.8 | 0.00 | 0.00 | 0.00 | 65 | 1019.3 |
| 20260831161003 | 30 | 71 | 0.0 | 4.8 | 0.00 | 0.00 | 0.00 | 66 | 1019.4 |
| 20260831160503 | 30 | 60 | 1.6 | 4.8 | 0.00 | 0.00 | 0.00 | 71 | 1019.5 |
| 20260831160003 | 30 | 72 | 1.6 | 8.0 | 0.00 | 0.00 | 0.00 | 67 | 1019.6 |
| 20260831155503 | 30 | 77 | 0.0 | 8.0 | 0.00 | 0.00 | 0.00 | 67 | 1019.6 |
| 20260831155003 | 30 | 69 | 0.0 | 4.8 | 0.00 | 0.00 | 0.00 | 68 | 1019.6 |
| 20260831154503 | 30 | 60 | 0.0 | 4.8 | 0.00 | 0.00 | 0.00 | 68 | 1019.7 |
| 20260831154003 | 29 | 318 | 0.0 | 4.8 | 0.00 | 0.00 | 0.00 | 71 | 1019.7 |
| 20260831153503 | 29 | 251 | 0.0 | 4.8 | 0.00 | 0.00 | 0.00 | 70 | 1019.8 |
| 20260831153003 | 28 | 75 | 0.0 | 4.8 | 0.00 | 0.00 | 0.00 | 71 | 1019.9 |
| 20260831152503 | 28 | 75 | 0.0 | 4.8 | 0.00 | 0.00 | 0.00 | 73 | 1020.0 |
| 20260831152003 | 28 | 263 | 0.0 | 6.4 | 0.00 | 0.00 | 0.00 | 75 | 1020.0 |
| 20260831151503 | 28 | 31 | 0.0 | 6.4 | 0.00 | 0.00 | 0.00 | 74 | 1020.0 |
| 20260831151003 | 28 | 57 | 0.0 | 4.8 | 0.00 | 0.00 | 0.00 | 75 | 1019.9 |
| 20260831150503 | 28 | 55 | 0.0 | 4.8 | 0.00 | 0.00 | 0.00 | 76 | 1020.0 |
| 20260831150003 | 27 | 60 | 0.0 | 6.4 | 0.00 | 0.00 | 0.00 | 77 | 1019.9 |
| 20260831145503 | 27 | 52 | 0.0 | 6.4 | 0.00 | 0.00 | 0.00 | 77 | 1019.9 |
| 20260831145003 | 27 | 48 | 0.0 | 4.8 | 0.00 | 0.00 | 0.00 | 78 | 1019.9 |
| 20260831144503 | 27 | 52 | 0.0 | 4.8 | 0.00 | 0.00 | 0.00 | 77 | 1019.9 |
| 20260831144003 | 27 | 51 | 0.0 | 4.8 | 0.00 | 0.00 | 0.00 | 80 | 1019.9 |
| 20260831143503 | 27 | 65 | 0.0 | 4.8 | 0.00 | 0.00 | 0.00 | 81 | 1019.9 |
| 20260831143003 | 26 | 156 | 0.0 | 3.2 | 0.00 | 0.00 | 0.00 | 81 | 1019.9 |
| 20260831142503 | 26 | 67 | 1.6 | 6.4 | 0.00 | 0.00 | 0.00 | 82 | 1019.9 |
| 20260831142003 | 26 | 60 | 0.0 | 6.4 | 0.00 | 0.00 | 0.00 | 83 | 1019.7 |
| 20260831141503 | 26 | 233 | 0.0 | 6.4 | 0.00 | 0.00 | 0.00 | 84 | 1019.7 |
| 20260831141003 | 26 | 236 | 1.6 | 6.4 | 0.00 | 0.00 | 0.00 | 84 | 1019.7 |
| 20260831140503 | 26 | 235 | 0.0 | 4.8 | 0.00 | 0.00 | 0.00 | 85 | 1019.6 |
| 20260831140003 | 26 | 42 | 0.0 | 3.2 | 0.00 | 0.00 | 0.00 | 86 | 1019.5 |
| 20260831135503 | 25 | 56 | 0.0 | 3.2 | 0.00 | 0.00 | 0.00 | 87 | 1019.5 |
| 20260831135003 | 25 | 242 | 0.0 | 4.8 | 0.00 | 0.00 | 0.00 | 87 | 1019.5 |
| 20260831134503 | 25 | 241 | 0.0 | 4.8 | 0.00 | 0.00 | 0.00 | 89 | 1019.5 |
| 20260831134003 | 25 | 236 | 0.0 | 3.2 | 0.00 | 0.00 | 0.00 | 90 | 1019.5 |
| 20260831133503 | 25 | 228 | 0.0 | 3.2 | 0.00 | 0.00 | 0.00 | 91 | 1019.4 |
| 20260831133003 | 25 | 226 | 0.0 | 3.2 | 0.00 | 0.00 | 0.00 | 93 | 1019.5 |
| 20260831132503 | 24 | 97 | 0.0 | 1.6 | 0.00 | 0.00 | 0.00 | 93 | 1019.5 |
| 20260831132003 | 24 | 242 | 0.0 | 1.6 | 0.00 | 0.00 | 0.00 | 94 | 1019.5 |
| 20260831131503 | 23 | 245 | 0.0 | 1.6 | 0.00 | 0.00 | 0.00 | 95 | 1019.5 |
| 20260831131004 | 23 | 231 | 0.0 | 1.6 | 0.00 | 0.00 | 0.00 | 96 | 1019.5 |
| 20260831130503 | 23 | 253 | 0.0 | 1.6 | 0.00 | 0.00 | 0.00 | 97 | 1019.6 |
| 20260831130003 | 23 | 252 | 0.0 | 1.6 | 0.00 | 0.00 | 0.00 | 97 | 1019.6 |
| 20260831125503 | 23 | 252 | 0.0 | 1.6 | 0.00 | 0.00 | 0.00 | 97 | 1019.6 |
| 20260831125003 | 23 | 249 | 0.0 | 1.6 | 0.00 | 0.00 | 0.00 | 97 | 1019.6 |
| 20260831124503 | 23 | 69 | 0.0 | 3.2 | 0.00 | 0.00 | 0.00 | 97 | 1019.6 |
| 20260831124003 | 22 | 70 | 0.0 | 3.2 | 0.00 | 0.00 | 0.00 | 97 | 1019.6 |
| 20260831123503 | 22 | 75 | 0.0 | 3.2 | 0.00 | 0.00 | 0.00 | 97 | 1019.6 |
| 20260831123003 | 22 | 236 | 0.0 | 1.6 | 0.00 | 0.00 | 0.00 | 97 | 1019.6 |
| 20260831122503 | 22 | 0 | 0.0 | 0.0 | 0.00 | 0.00 | 0.00 | 97 | 1019.6 |
| 20260831122003 | 22 | 0 | 0.0 | 0.0 | 0.00 | 0.00 | 0.00 | 97 | 1019.6 |
| 20260831121503 | 22 | 234 | 0.0 | 1.6 | 0.00 | 0.00 | 0.00 | 97 | 1019.6 |
| 20260831121003 | 22 | 234 | 0.0 | 1.6 | 0.00 | 0.00 | 0.00 | 97 | 1019.6 |
| 20260831120503 | 22 | 0 | 0.0 | 0.0 | 0.00 | 0.00 | 0.00 | 97 | 1019.6 |
| 20260831120003 | 22 | 0 | 0.0 | 0.0 | 0.00 | 0.00 | 0.00 | 97 | 1019.5 |
| 20260831115503 | 21 | 0 | 0.0 | 0.0 | 0.00 | 0.00 | 0.00 | 97 | 1019.5 |
| 20260831115003 | 21 | 0 | 0.0 | 0.0 | 0.00 | 0.00 | 0.00 | 97 | 1019.5 |
| 20260831114503 | 21 | 0 | 0.0 | 0.0 | 0.00 | 0.00 | 0.00 | 97 | 1019.4 |
| 20260831114003 | 21 | 0 | 0.0 | 0.0 | 0.00 | 0.00 | 0.00 | 97 | 1019.5 |
| 20260831113503 | 21 | 0 | 0.0 | 0.0 | 0.00 | 0.00 | 0.00 | 97 | 1019.4 |
| 20260831113003 | 21 | 0 | 0.0 | 0.0 | 0.00 | 0.00 | 0.00 | 97 | 1019.4 |
| 20260831112503 | 21 | 0 | 0.0 | 0.0 | 0.00 | 0.00 | 0.00 | 97 | 1019.3 |
| 20260831112003 | 21 | 0 | 0.0 | 0.0 | 0.00 | 0.00 | 0.00 | 97 | 1019.5 |
| 20260831111503 | 21 | 0 | 0.0 | 0.0 | 0.00 | 0.00 | 0.00 | 97 | 1019.5 |
| 20260831111003 | 20 | 0 | 0.0 | 0.0 | 0.00 | 0.00 | 0.00 | 97 | 1019.4 |
| 20260831110503 | 20 | 0 | 0.0 | 0.0 | 0.00 | 0.00 | 0.00 | 97 | 1019.4 |
| 20260831110003 | 20 | 0 | 0.0 | 0.0 | 0.00 | 0.00 | 0.00 | 97 | 1019.5 |
| 20260831105503 | 20 | 0 | 0.0 | 0.0 | 0.00 | 0.00 | 0.00 | 97 | 1019.4 |
| 20260831105003 | 20 | 0 | 0.0 | 0.0 | 0.00 | 0.00 | 0.00 | 97 | 1019.4 |
| 20260831104503 | 20 | 0 | 0.0 | 0.0 | 0.00 | 0.00 | 0.00 | 97 | 1019.4 |
| 20260831104003 | 20 | 0 | 0.0 | 0.0 | 0.00 | 0.00 | 0.00 | 97 | 1019.4 |
| 20260831103503 | 20 | 0 | 0.0 | 0.0 | 0.00 | 0.00 | 0.00 | 97 | 1019.3 |
| 20260831103003 | 20 | 0 | 0.0 | 0.0 | 0.00 | 0.00 | 0.00 | 97 | 1019.3 |
| 20260831102503 | 20 | 0 | 0.0 | 0.0 | 0.00 | 0.00 | 0.00 | 97 | 1019.2 |
| 20260831102003 | 20 | 0 | 0.0 | 0.0 | 0.00 | 0.00 | 0.00 | 97 | 1019.2 |
| 20260831101503 | 20 | 0 | 0.0 | 0.0 | 0.00 | 0.00 | 0.00 | 97 | 1019.2 |
| 20260831101003 | 20 | 0 | 0.0 | 0.0 | 0.00 | 0.00 | 0.00 | 97 | 1019.2 |
| 20260831100503 | 20 | 0 | 0.0 | 0.0 | 0.00 | 0.00 | 0.00 | 97 | 1019.1 |
| 20260831100003 | 20 | 0 | 0.0 | 0.0 | 0.00 | 0.00 | 0.00 | 97 | 1019.0 |
| 20260831095503 | 20 | 0 | 0.0 | 0.0 | 0.00 | 0.00 | 0.00 | 97 | 1019.0 |
| 20260831095003 | 20 | 0 | 0.0 | 0.0 | 0.00 | 0.00 | 0.00 | 97 | 1019.1 |
| 20260831094503 | 20 | 0 | 0.0 | 0.0 | 0.00 | 0.00 | 0.00 | 97 | 1019.1 |
| 20260831094003 | 20 | 0 | 0.0 | 0.0 | 0.00 | 0.00 | 0.00 | 97 | 1019.0 |
| 20260831093503 | 20 | 0 | 0.0 | 0.0 | 0.00 | 0.00 | 0.00 | 97 | 1018.9 |
| 20260831093003 | 20 | 0 | 0.0 | 0.0 | 0.00 | 0.00 | 0.00 | 97 | 1018.9 |
| 20260831092503 | 20 | 0 | 0.0 | 0.0 | 0.00 | 0.00 | 0.00 | 97 | 1019.0 |
| 20260831092003 | 20 | 0 | 0.0 | 0.0 | 0.00 | 0.00 | 0.00 | 97 | 1019.0 |
| 20260831091503 | 20 | 0 | 0.0 | 0.0 | 0.00 | 0.00 | 0.00 | 97 | 1019.0 |
| 20260831091003 | 20 | 0 | 0.0 | 0.0 | 0.00 | 0.00 | 0.00 | 97 | 1018.9 |
| 20260831090503 | 20 | 0 | 0.0 | 0.0 | 0.00 | 0.00 | 0.00 | 97 | 1018.9 |
| 20260831090003 | 21 | 0 | 0.0 | 0.0 | 0.00 | 0.00 | 0.00 | 97 | 1019.0 |
| 20260831085503 | 21 | 0 | 0.0 | 0.0 | 0.00 | 0.00 | 0.00 | 97 | 1019.0 |
| 20260831085003 | 21 | 0 | 0.0 | 0.0 | 0.00 | 0.00 | 0.00 | 97 | 1019.0 |
| 20260831084503 | 21 | 0 | 0.0 | 0.0 | 0.00 | 0.00 | 0.00 | 97 | 1019.0 |
| 20260831084003 | 21 | 0 | 0.0 | 0.0 | 0.00 | 0.00 | 0.00 | 97 | 1019.0 |
| 20260831083503 | 21 | 0 | 0.0 | 0.0 | 0.00 | 0.00 | 0.00 | 97 | 1019.0 |
| 20260831083003 | 21 | 0 | 0.0 | 0.0 | 0.00 | 0.00 | 0.00 | 97 | 1018.9 |
| 20260831082503 | 21 | 0 | 0.0 | 0.0 | 0.00 | 0.00 | 0.00 | 96 | 1018.9 |
| 20260831082003 | 21 | 0 | 0.0 | 0.0 | 0.00 | 0.00 | 0.00 | 96 | 1018.9 |
| 20260831081503 | 21 | 0 | 0.0 | 0.0 | 0.00 | 0.00 | 0.00 | 96 | 1019.0 |
| 20260831081003 | 21 | 0 | 0.0 | 0.0 | 0.00 | 0.00 | 0.00 | 97 | 1018.9 |
| 20260831080503 | 21 | 0 | 0.0 | 0.0 | 0.00 | 0.00 | 0.00 | 97 | 1018.9 |
| 20260831080003 | 21 | 0 | 0.0 | 0.0 | 0.00 | 0.00 | 0.00 | 96 | 1018.9 |
| 20260831075503 | 21 | 0 | 0.0 | 0.0 | 0.00 | 0.00 | 0.00 | 97 | 1019.0 |
| 20260831075003 | 21 | 0 | 0.0 | 0.0 | 0.00 | 0.00 | 0.00 | 96 | 1019.0 |
| 20260831074503 | 21 | 0 | 0.0 | 0.0 | 0.00 | 0.00 | 0.00 | 96 | 1019.0 |
| 20260831074003 | 21 | 0 | 0.0 | 0.0 | 0.00 | 0.00 | 0.00 | 97 | 1019.0 |
| 20260831073503 | 21 | 0 | 0.0 | 0.0 | 0.00 | 0.00 | 0.00 | 96 | 1019.0 |
| 20260831073003 | 21 | 0 | 0.0 | 0.0 | 0.00 | 0.00 | 0.00 | 96 | 1019.1 |
| 20260831072503 | 21 | 0 | 0.0 | 0.0 | 0.00 | 0.00 | 0.00 | 96 | 1019.1 |
| 20260831072004 | 21 | 0 | 0.0 | 0.0 | 0.00 | 0.00 | 0.00 | 96 | 1019.2 |
| 20260831071503 | 21 | 0 | 0.0 | 0.0 | 0.00 | 0.00 | 0.00 | 96 | 1019.3 |
| 20260831071003 | 21 | 0 | 0.0 | 0.0 | 0.00 | 0.00 | 0.00 | 96 | 1019.3 |
| 20260831070503 | 21 | 0 | 0.0 | 0.0 | 0.00 | 0.00 | 0.00 | 96 | 1019.3 |
| 20260831070003 | 21 | 0 | 0.0 | 0.0 | 0.00 | 0.00 | 0.00 | 96 | 1019.3 |
| 20260831065503 | 21 | 233 | 0.0 | 1.6 | 0.00 | 0.00 | 0.00 | 96 | 1019.3 |
| 20260831065003 | 21 | 233 | 0.0 | 1.6 | 0.00 | 0.00 | 0.00 | 96 | 1019.3 |
| 20260831064503 | 21 | 0 | 0.0 | 0.0 | 0.00 | 0.00 | 0.00 | 97 | 1019.3 |
| 20260831064003 | 21 | 0 | 0.0 | 0.0 | 0.00 | 0.00 | 0.00 | 96 | 1019.3 |
| 20260831063503 | 21 | 0 | 0.0 | 0.0 | 0.00 | 0.00 | 0.00 | 96 | 1019.4 |
| 20260831063003 | 21 | 0 | 0.0 | 0.0 | 0.00 | 0.00 | 0.00 | 96 | 1019.4 |
| 20260831062514 | 21 | 0 | 0.0 | 0.0 | 0.00 | 0.00 | 0.00 | 96 | 1019.4 |
| 20260831062003 | 21 | 0 | 0.0 | 0.0 | 0.00 | 0.00 | 0.00 | 96 | 1019.4 |
| 20260831061503 | 21 | 0 | 0.0 | 0.0 | 0.00 | 0.00 | 0.00 | 96 | 1019.3 |
| 20260831061003 | 21 | 0 | 0.0 | 0.0 | 0.00 | 0.00 | 0.00 | 96 | 1019.3 |
| 20260831060503 | 21 | 0 | 0.0 | 0.0 | 0.00 | 0.00 | 0.00 | 96 | 1019.4 |
| 20260831060003 | 21 | 0 | 0.0 | 0.0 | 0.00 | 0.00 | 0.00 | 96 | 1019.3 |
| 20260831055503 | 21 | 0 | 0.0 | 0.0 | 0.00 | 0.00 | 0.00 | 96 | 1019.4 |
| 20260831055003 | 21 | 0 | 0.0 | 0.0 | 0.00 | 0.00 | 0.00 | 96 | 1019.4 |
| 20260831054503 | 21 | 0 | 0.0 | 0.0 | 0.00 | 0.00 | 0.00 | 96 | 1019.5 |
| 20260831054003 | 21 | 0 | 0.0 | 0.0 | 0.00 | 0.00 | 0.00 | 96 | 1019.5 |
| 20260831053503 | 21 | 0 | 0.0 | 0.0 | 0.00 | 0.00 | 0.00 | 96 | 1019.5 |
| 20260831053003 | 21 | 0 | 0.0 | 0.0 | 0.00 | 0.00 | 0.00 | 96 | 1019.6 |
| 20260831052503 | 21 | 0 | 0.0 | 0.0 | 0.00 | 0.00 | 0.00 | 96 | 1019.6 |
| 20260831052003 | 21 | 0 | 0.0 | 0.0 | 0.00 | 0.00 | 0.00 | 96 | 1019.6 |
| 20260831051503 | 21 | 0 | 0.0 | 0.0 | 0.00 | 0.00 | 0.00 | 96 | 1019.6 |
| 20260831051003 | 21 | 0 | 0.0 | 0.0 | 0.00 | 0.00 | 0.00 | 96 | 1019.6 |
| 20260831050503 | 21 | 0 | 0.0 | 0.0 | 0.00 | 0.00 | 0.00 | 96 | 1019.7 |
| 20260831050003 | 21 | 0 | 0.0 | 0.0 | 0.00 | 0.00 | 0.00 | 95 | 1019.7 |
| 20260831045503 | 21 | 0 | 0.0 | 0.0 | 0.00 | 0.00 | 0.00 | 95 | 1019.6 |
| 20260831045003 | 21 | 0 | 0.0 | 0.0 | 0.00 | 0.00 | 0.00 | 95 | 1019.7 |
| 20260831044503 | 21 | 0 | 0.0 | 0.0 | 0.00 | 0.00 | 0.00 | 95 | 1019.6 |
| 20260831044003 | 21 | 0 | 0.0 | 0.0 | 0.00 | 0.00 | 0.00 | 95 | 1019.6 |
| 20260831043503 | 21 | 0 | 0.0 | 0.0 | 0.00 | 0.00 | 0.00 | 95 | 1019.6 |
| 20260831043003 | 22 | 0 | 0.0 | 0.0 | 0.00 | 0.00 | 0.00 | 95 | 1019.6 |
| 20260831042503 | 22 | 0 | 0.0 | 0.0 | 0.00 | 0.00 | 0.00 | 95 | 1019.7 |
| 20260831042003 | 22 | 0 | 0.0 | 0.0 | 0.00 | 0.00 | 0.00 | 95 | 1019.7 |
| 20260831041503 | 22 | 0 | 0.0 | 0.0 | 0.00 | 0.00 | 0.00 | 95 | 1019.7 |
| 20260831041003 | 22 | 0 | 0.0 | 0.0 | 0.00 | 0.00 | 0.00 | 95 | 1019.7 |
| 20260831040503 | 22 | 0 | 0.0 | 0.0 | 0.00 | 0.00 | 0.00 | 95 | 1019.5 |
| 20260831040003 | 22 | 0 | 0.0 | 0.0 | 0.00 | 0.00 | 0.00 | 95 | 1019.6 |
| 20260831035503 | 22 | 0 | 0.0 | 0.0 | 0.00 | 0.00 | 0.00 | 95 | 1019.6 |
| 20260831035003 | 22 | 0 | 0.0 | 0.0 | 0.00 | 0.00 | 0.00 | 95 | 1019.6 |
| 20260831034503 | 22 | 0 | 0.0 | 0.0 | 0.00 | 0.00 | 0.00 | 95 | 1019.6 |
| 20260831034003 | 22 | 0 | 0.0 | 0.0 | 0.00 | 0.00 | 0.00 | 95 | 1019.6 |
| 20260831033503 | 22 | 0 | 0.0 | 0.0 | 0.00 | 0.00 | 0.00 | 95 | 1019.7 |
| 20260831033003 | 22 | 0 | 0.0 | 0.0 | 0.00 | 0.00 | 0.00 | 95 | 1019.7 |
| 20260831032503 | 22 | 0 | 0.0 | 0.0 | 0.00 | 0.00 | 0.00 | 95 | 1019.7 |
| 20260831032003 | 22 | 0 | 0.0 | 0.0 | 0.00 | 0.00 | 0.00 | 94 | 1019.7 |
| 20260831031503 | 22 | 0 | 0.0 | 0.0 | 0.00 | 0.00 | 0.00 | 94 | 1019.7 |
| 20260831031003 | 22 | 0 | 0.0 | 0.0 | 0.00 | 0.00 | 0.00 | 94 | 1019.8 |
| 20260831030503 | 22 | 0 | 0.0 | 0.0 | 0.00 | 0.00 | 0.00 | 94 | 1019.8 |
| 20260831030003 | 22 | 0 | 0.0 | 0.0 | 0.00 | 0.00 | 0.00 | 94 | 1019.7 |
| 20260831025503 | 22 | 0 | 0.0 | 0.0 | 0.00 | 0.00 | 0.00 | 94 | 1019.7 |
| 20260831025003 | 22 | 0 | 0.0 | 0.0 | 0.00 | 0.00 | 0.00 | 93 | 1019.7 |
| 20260831024503 | 22 | 0 | 0.0 | 0.0 | 0.00 | 0.00 | 0.00 | 93 | 1019.7 |